{"data":{"norad_id":49143,"intl_designator":"2021-082P","name":"STARLINK-3109","alt_names":[],"object_type":"PAYLOAD","status":"ACTIVE","operator":null,"country":"US","launch_date":"2021-09-14","launch_site_code":"AFWTR","launch_vehicle":null,"mission":null,"orbit_class":"UNKNOWN","rcs_meters":null,"size_class":null,"mass_kg":null,"dimensions":null,"purposes":["comms"],"wikipedia_slug":null,"has_3d_model":false,"image_url":null,"decayed_at":null,"tle_current":{"epoch":"2026-05-25T02:11:13.816032Z","epoch_age_seconds":61142,"freshness":"FRESH","line1":"1 49143U 21082P   26145.09113213  .00000592  00000+0  58552-4 0  9996","line2":"2 49143  70.0001  82.8550 0003167 263.8163  96.2635 14.97533355259007","mean_motion":14.97533355,"eccentricity":0.0003167,"inclination_deg":70.0001,"raan_deg":82.855,"arg_perigee_deg":263.8163,"mean_anomaly_deg":96.2635,"bstar":5.8552e-5,"rev_number":25900,"period_min":96.158125305997,"perigee_km":572.31863530255,"apogee_km":576.72244858962,"semimajor_km":6952.6575419461,"source":"CELESTRAK","updated_at":"2026-05-25T13:38:16.785732Z"}}}